Location: Bord�res
(43.2000°N, 0.2167°W)
Time: 11:33:21
(UTC+00:00)

Cosmos 2360 Rocket - Pass Details

Date: 03 March 2021
Orbit: 833 x 846 km, 71.0° (Epoch: 20 April)

Event Time Altitude Azimuth Distance (km) Brightness Sun altitude
Rises 18:35:20 0° 185° (S) 3,371 5.4 -8.6°
Reaches altitude 10° 18:37:50 10° 179° (S) 2,443 4.6 -9.0°
Maximum altitude 18:43:10 47° 107° (ESE) 1,105 2.4 -10.0°
Drops below altitude 10° 18:48:34 10° 36° (NE) 2,468 4.3 -11.0°
Sets 18:51:05 0° 30° (NNE) 3,409 5.1 -11.4°
